Time,TemperatureF,DewpointF,PressureIn,WindDirection,WindDirectionDegrees,WindSpeedMPH,WindSpeedGustMPH,Humidity,HourlyPrecipIn,Conditions,Clouds,dailyrainin,SoftwareType,DateUTC
2013-03-29 00:00:00,38.2,32.6,30.43,WNW,300,0.0,0.0,80,0.00,CLR,,0.00,WeatherDisplay:10.37,2013-03-29 05:00:00,
2013-03-29 00:05:00,38.0,32.4,30.43,WNW,300,0.0,0.0,80,0.00,CLR,,0.00,WeatherDisplay:10.37,2013-03-29 05:05:00,
2013-03-29 00:10:00,37.9,32.6,30.42,WNW,300,0.0,0.0,81,0.00,CLR,,0.00,WeatherDisplay:10.37,2013-03-29 05:10:00,
2013-03-29 00:15:00,37.8,32.5,30.42,WNW,300,0.0,0.0,81,0.00,CLR,,0.00,WeatherDisplay:10.37,2013-03-29 05:15:00,
2013-03-29 00:20:00,37.8,32.5,30.42,WNW,300,0.0,0.0,81,0.00,CLR,,0.00,WeatherDisplay:10.37,2013-03-29 05:20:00,
2013-03-29 00:25:00,37.8,32.8,30.42,WNW,300,0.0,0.0,82,0.00,CLR,,0.00,WeatherDisplay:10.37,2013-03-29 05:25:00,
2013-03-29 00:30:00,37.8,32.8,30.42,WNW,300,0.0,0.0,82,0.00,CLR,,0.00,WeatherDisplay:10.37,2013-03-29 05:30:00,
2013-03-29 00:35:00,37.8,33.1,30.42,WNW,300,0.0,0.0,83,0.00,CLR,,0.00,WeatherDisplay:10.37,2013-03-29 05:35:00,
2013-03-29 00:40:00,37.6,32.9,30.43,WNW,300,0.0,0.0,83,0.00,CLR,,0.00,WeatherDisplay:10.37,2013-03-29 05:40:00,
2013-03-29 00:45:00,37.6,33.2,30.43,WNW,300,0.0,0.0,84,0.00,CLR,,0.00,WeatherDisplay:10.37,2013-03-29 05:45:00,
2013-03-29 00:50:00,37.5,33.1,30.43,WNW,300,0.0,0.0,84,0.00,CLR,,0.00,WeatherDisplay:10.37,2013-03-29 05:50:00,
2013-03-29 00:55:00,37.3,33.2,30.43,WNW,300,0.0,0.0,85,0.00,CLR,,0.00,WeatherDisplay:10.37,2013-03-29 05:55:00,
2013-03-29 01:00:00,37.3,33.2,30.42,WNW,300,0.0,0.0,85,0.00,CLR,,0.00,WeatherDisplay:10.37,2013-03-29 06:00:00,
2013-03-29 01:05:00,37.2,33.1,30.42,WNW,300,0.0,0.0,85,0.00,CLR,,0.00,WeatherDisplay:10.37,2013-03-29 06:05:00,
2013-03-29 01:10:00,37.2,33.1,30.42,WNW,300,1.1,0.0,85,0.00,CLR,,0.00,WeatherDisplay:10.37,2013-03-29 06:10:00,
2013-03-29 01:15:00,37.3,33.2,30.42,WNW,300,0.0,0.0,85,0.00,CLR,,0.00,WeatherDisplay:10.37,2013-03-29 06:15:00,
2013-03-29 01:20:00,37.6,33.5,30.42,WNW,300,0.0,0.0,85,0.00,CLR,,0.00,WeatherDisplay:10.37,2013-03-29 06:20:00,
2013-03-29 01:25:00,37.9,33.8,30.42,WNW,300,0.0,0.0,85,0.00,CLR,,0.00,WeatherDisplay:10.37,2013-03-29 06:25:00,
2013-03-29 01:30:00,37.9,33.8,30.42,WNW,300,0.0,0.0,85,0.00,CLR,,0.00,WeatherDisplay:10.37,2013-03-29 06:30:00,
2013-03-29 01:35:00,38.3,34.2,30.42,WNW,300,0.0,0.0,85,0.00,CLR,,0.00,WeatherDisplay:10.37,2013-03-29 06:35:00,
2013-03-29 01:40:00,38.5,34.1,30.42,WNW,300,0.0,0.0,84,0.00,CLR,,0.00,WeatherDisplay:10.37,2013-03-29 06:40:00,
2013-03-29 01:45:00,38.6,34.5,30.42,WNW,300,0.0,0.0,85,0.00,CLR,,0.00,WeatherDisplay:10.37,2013-03-29 06:45:00,
2013-03-29 01:50:00,38.8,34.7,30.42,WNW,300,0.0,0.0,85,0.00,CLR,,0.00,WeatherDisplay:10.37,2013-03-29 06:50:00,
2013-03-29 01:55:00,38.9,34.5,30.42,WNW,300,0.0,0.0,84,0.00,CLR,,0.00,WeatherDisplay:10.37,2013-03-29 06:55:00,
2013-03-29 02:00:00,38.9,34.5,30.42,WNW,300,0.0,0.0,84,0.00,CLR,,0.00,WeatherDisplay:10.37,2013-03-29 07:00:00,
2013-03-29 02:05:00,39.1,34.7,30.42,WNW,300,0.0,0.0,84,0.00,CLR,,0.00,WeatherDisplay:10.37,2013-03-29 07:05:00,
2013-03-29 02:10:00,39.1,34.4,30.42,WNW,300,0.0,0.0,83,0.00,CLR,,0.00,WeatherDisplay:10.37,2013-03-29 07:10:00,
2013-03-29 02:15:00,39.2,34.8,30.42,WNW,300,0.0,0.0,84,0.00,CLR,,0.00,WeatherDisplay:10.37,2013-03-29 07:15:00,
2013-03-29 02:20:00,39.3,34.6,30.42,WNW,300,0.0,0.0,83,0.00,CLR,,0.00,WeatherDisplay:10.37,2013-03-29 07:20:00,
2013-03-29 02:25:00,39.3,34.6,30.42,WNW,300,0.0,0.0,83,0.00,CLR,,0.00,WeatherDisplay:10.37,2013-03-29 07:25:00,
2013-03-29 02:30:00,39.3,34.6,30.41,WNW,300,0.0,0.0,83,0.00,CLR,,0.00,WeatherDisplay:10.37,2013-03-29 07:30:00,
2013-03-29 02:35:00,39.3,34.6,30.41,WNW,300,0.0,0.0,83,0.00,CLR,,0.00,WeatherDisplay:10.37,2013-03-29 07:35:00,
2013-03-29 02:40:00,39.3,34.6,30.41,WNW,300,0.0,0.0,83,0.00,CLR,,0.00,WeatherDisplay:10.37,2013-03-29 07:40:00,
2013-03-29 02:45:00,39.3,34.6,30.41,WNW,300,0.0,0.0,83,0.00,CLR,,0.00,WeatherDisplay:10.37,2013-03-29 07:45:00,
2013-03-29 02:50:00,39.3,34.6,30.41,WNW,300,0.0,0.0,83,0.00,CLR,,0.00,WeatherDisplay:10.37,2013-03-29 07:50:00,
2013-03-29 02:55:00,39.2,34.5,30.41,WNW,300,0.0,0.0,83,0.00,CLR,,0.00,WeatherDisplay:10.37,2013-03-29 07:55:00,
2013-03-29 03:00:00,39.1,34.4,30.41,WNW,300,0.0,0.0,83,0.00,CLR,,0.00,WeatherDisplay:10.37,2013-03-29 08:00:00,
2013-03-29 03:05:00,38.9,34.2,30.41,WNW,300,0.0,0.0,83,0.00,CLR,,0.00,WeatherDisplay:10.37,2013-03-29 08:05:00,
2013-03-29 03:10:00,38.6,33.9,30.41,WNW,300,0.0,0.0,83,0.00,CLR,,0.00,WeatherDisplay:10.37,2013-03-29 08:10:00,
2013-03-29 03:15:00,38.3,33.6,30.41,WNW,300,0.0,0.0,83,0.00,CLR,,0.00,WeatherDisplay:10.37,2013-03-29 08:15:00,
2013-03-29 03:20:00,38.0,33.3,30.41,WNW,300,0.0,0.0,83,0.00,CLR,,0.00,WeatherDisplay:10.37,2013-03-29 08:20:00,
2013-03-29 03:25:00,37.8,33.4,30.41,WNW,300,0.0,0.0,84,0.00,CLR,,0.00,WeatherDisplay:10.37,2013-03-29 08:25:00,
2013-03-29 03:30:00,37.6,33.5,30.41,WNW,300,0.0,0.0,85,0.00,CLR,,0.00,WeatherDisplay:10.37,2013-03-29 08:30:00,
2013-03-29 03:35:00,37.6,33.5,30.41,WNW,300,0.0,0.0,85,0.00,CLR,,0.00,WeatherDisplay:10.37,2013-03-29 08:35:00,
2013-03-29 03:40:00,37.5,33.4,30.41,WNW,300,0.0,0.0,85,0.00,CLR,,0.00,WeatherDisplay:10.37,2013-03-29 08:40:00,
2013-03-29 03:46:00,37.5,33.7,30.40,WNW,300,0.0,0.0,86,0.00,CLR,,0.00,WeatherDisplay:10.37,2013-03-29 08:46:00,
2013-03-29 03:51:00,37.3,33.5,30.40,WNW,300,0.0,0.0,86,0.00,CLR,,0.00,WeatherDisplay:10.37,2013-03-29 08:51:00,
2013-03-29 03:56:00,37.3,33.5,30.40,WNW,300,0.0,0.0,86,0.00,CLR,,0.00,WeatherDisplay:10.37,2013-03-29 08:56:00,
2013-03-29 04:01:00,37.2,33.4,30.40,WNW,300,0.0,0.0,86,0.00,CLR,,0.00,WeatherDisplay:10.37,2013-03-29 09:01:00,
2013-03-29 04:06:00,37.0,33.2,30.40,WNW,300,0.0,0.0,86,0.00,CLR,,0.00,WeatherDisplay:10.37,2013-03-29 09:06:00,
2013-03-29 04:11:00,37.2,33.4,30.40,WNW,300,0.0,0.0,86,0.00,CLR,,0.00,WeatherDisplay:10.37,2013-03-29 09:11:00,
2013-03-29 04:16:00,37.3,33.8,30.40,WNW,300,0.0,0.0,87,0.00,CLR,,0.00,WeatherDisplay:10.37,2013-03-29 09:16:00,
2013-03-29 04:21:00,37.3,33.8,30.40,WNW,300,0.0,0.0,87,0.00,CLR,,0.00,WeatherDisplay:10.37,2013-03-29 09:21:00,
2013-03-29 04:26:00,37.3,33.8,30.40,WNW,300,0.0,0.0,87,0.00,CLR,,0.00,WeatherDisplay:10.37,2013-03-29 09:26:00,
2013-03-29 04:31:00,37.5,33.7,30.41,WNW,300,0.0,0.0,86,0.00,CLR,,0.00,WeatherDisplay:10.37,2013-03-29 09:31:00,
2013-03-29 04:36:00,37.5,33.7,30.41,WNW,300,0.0,0.0,86,0.00,CLR,,0.00,WeatherDisplay:10.37,2013-03-29 09:36:00,
2013-03-29 04:41:00,37.6,33.8,30.41,WNW,300,0.0,0.0,86,0.00,CLR,,0.00,WeatherDisplay:10.37,2013-03-29 09:41:00,
2013-03-29 04:46:00,37.8,34.0,30.41,WNW,300,0.0,0.0,86,0.00,CLR,,0.00,WeatherDisplay:10.37,2013-03-29 09:46:00,
2013-03-29 04:51:00,37.8,34.0,30.41,WNW,300,0.0,0.0,86,0.00,CLR,,0.00,WeatherDisplay:10.37,2013-03-29 09:51:00,
2013-03-29 04:56:00,37.9,34.1,30.41,WNW,300,0.0,0.0,86,0.00,CLR,,0.00,WeatherDisplay:10.37,2013-03-29 09:56:00,
2013-03-29 05:01:00,37.9,34.1,30.41,WNW,300,0.0,0.0,86,0.00,CLR,,0.00,WeatherDisplay:10.37,2013-03-29 10:01:00,
2013-03-29 05:06:00,37.9,34.1,30.41,WNW,300,0.0,0.0,86,0.00,CLR,,0.00,WeatherDisplay:10.37,2013-03-29 10:06:00,
2013-03-29 05:11:00,37.9,33.8,30.40,WNW,300,0.0,0.0,85,0.00,CLR,,0.00,WeatherDisplay:10.37,2013-03-29 10:11:00,
2013-03-29 05:16:00,37.8,34.0,30.41,WNW,300,0.0,0.0,86,0.00,CLR,,0.00,WeatherDisplay:10.37,2013-03-29 10:16:00,
2013-03-29 05:21:00,37.6,33.8,30.41,WNW,300,0.0,0.0,86,0.00,CLR,,0.00,WeatherDisplay:10.37,2013-03-29 10:21:00,
2013-03-29 05:26:00,37.3,33.2,30.41,WNW,300,0.0,0.0,85,0.00,CLR,,0.00,WeatherDisplay:10.37,2013-03-29 10:26:00,
2013-03-29 05:31:00,37.2,33.4,30.41,WNW,300,0.0,0.0,86,0.00,CLR,,0.00,WeatherDisplay:10.37,2013-03-29 10:31:00,
2013-03-29 05:36:00,37.0,33.2,30.41,WNW,300,0.0,0.0,86,0.00,CLR,,0.00,WeatherDisplay:10.37,2013-03-29 10:36:00,
2013-03-29 05:41:00,36.9,33.1,30.41,WNW,300,0.0,0.0,86,0.00,CLR,,0.00,WeatherDisplay:10.37,2013-03-29 10:41:00,
2013-03-29 05:46:00,36.8,33.3,30.41,WNW,300,0.0,0.0,87,0.00,CLR,,0.00,WeatherDisplay:10.37,2013-03-29 10:46:00,
2013-03-29 05:51:00,36.8,33.3,30.41,WNW,300,0.0,0.0,87,0.00,CLR,,0.00,WeatherDisplay:10.37,2013-03-29 10:51:00,
2013-03-29 05:56:00,37.0,33.8,30.41,WNW,300,0.0,0.0,88,0.00,CLR,,0.00,WeatherDisplay:10.37,2013-03-29 10:56:00,
2013-03-29 06:01:00,37.0,33.5,30.41,WNW,300,0.0,0.0,87,0.00,CLR,,0.00,WeatherDisplay:10.37,2013-03-29 11:01:00,
2013-03-29 06:06:00,37.3,34.1,30.41,WNW,300,0.0,0.0,88,0.00,CLR,,0.00,WeatherDisplay:10.37,2013-03-29 11:06:00,
2013-03-29 06:11:00,37.5,34.0,30.41,WNW,300,0.0,0.0,87,0.00,CLR,,0.00,WeatherDisplay:10.37,2013-03-29 11:11:00,
2013-03-29 06:16:00,37.5,34.0,30.41,WNW,300,0.0,0.0,87,0.00,CLR,,0.00,WeatherDisplay:10.37,2013-03-29 11:16:00,
2013-03-29 06:21:00,37.6,34.1,30.41,WNW,300,0.0,0.0,87,0.00,CLR,,0.00,WeatherDisplay:10.37,2013-03-29 11:21:00,
2013-03-29 06:26:00,37.6,33.8,30.41,WNW,300,0.0,0.0,86,0.00,CLR,,0.00,WeatherDisplay:10.37,2013-03-29 11:26:00,
2013-03-29 06:31:00,37.5,33.7,30.41,WNW,300,0.0,0.0,86,0.00,CLR,,0.00,WeatherDisplay:10.37,2013-03-29 11:31:00,
2013-03-29 06:36:00,37.2,33.4,30.41,WNW,300,0.0,0.0,86,0.00,CLR,,0.00,WeatherDisplay:10.37,2013-03-29 11:36:00,
2013-03-29 06:41:00,37.0,33.2,30.42,WNW,300,0.0,0.0,86,0.00,CLR,,0.00,WeatherDisplay:10.37,2013-03-29 11:41:00,
2013-03-29 06:46:00,36.9,33.1,30.42,WNW,300,0.0,0.0,86,0.00,CLR,,0.00,WeatherDisplay:10.37,2013-03-29 11:46:00,
2013-03-29 06:51:00,36.9,33.1,30.42,WNW,300,0.0,0.0,86,0.00,CLR,,0.00,WeatherDisplay:10.37,2013-03-29 11:51:00,
2013-03-29 06:56:00,36.9,33.4,30.43,WNW,300,0.0,0.0,87,0.00,CLR,,0.00,WeatherDisplay:10.37,2013-03-29 11:56:00,
2013-03-29 07:01:00,37.0,33.5,30.43,WNW,300,0.0,0.0,87,0.00,CLR,,0.00,WeatherDisplay:10.37,2013-03-29 12:01:00,
2013-03-29 07:06:00,37.2,33.7,30.43,WNW,300,0.0,0.0,87,0.00,CLR,,0.00,WeatherDisplay:10.37,2013-03-29 12:06:00,
2013-03-29 07:11:00,37.3,33.8,30.43,WNW,300,0.0,0.0,87,0.00,CLR,,0.00,WeatherDisplay:10.37,2013-03-29 12:11:00,
2013-03-29 07:16:00,37.6,33.8,30.43,WNW,300,0.0,0.0,86,0.00,CLR,,0.00,WeatherDisplay:10.37,2013-03-29 12:16:00,
2013-03-29 07:21:00,37.9,34.1,30.43,WNW,300,0.0,0.0,86,0.00,CLR,,0.00,WeatherDisplay:10.37,2013-03-29 12:21:00,
2013-03-29 07:26:00,38.0,33.9,30.43,WNW,300,0.0,0.0,85,0.00,CLR,,0.00,WeatherDisplay:10.37,2013-03-29 12:26:00,
2013-03-29 07:31:00,38.3,34.2,30.44,WNW,300,0.0,0.0,85,0.00,CLR,,0.00,WeatherDisplay:10.37,2013-03-29 12:31:00,
2013-03-29 07:36:00,38.5,34.1,30.44,WNW,300,0.0,0.0,84,0.00,CLR,,0.00,WeatherDisplay:10.37,2013-03-29 12:36:00,
2013-03-29 07:42:00,38.8,34.4,30.43,WNW,300,0.0,0.0,84,0.00,CLR,,0.00,WeatherDisplay:10.37,2013-03-29 12:42:00,
2013-03-29 07:47:00,39.1,34.7,30.43,WNW,300,0.0,0.0,84,0.00,CLR,,0.00,WeatherDisplay:10.37,2013-03-29 12:47:00,
2013-03-29 07:52:00,39.3,34.6,30.44,WNW,300,0.0,0.0,83,0.00,CLR,,0.00,WeatherDisplay:10.37,2013-03-29 12:52:00,
2013-03-29 07:57:00,39.6,34.9,30.44,WNW,300,0.0,0.0,83,0.00,CLR,,0.00,WeatherDisplay:10.37,2013-03-29 12:57:00,
2013-03-29 08:02:00,39.9,34.9,30.44,WNW,300,0.0,0.0,82,0.00,CLR,,0.00,WeatherDisplay:10.37,2013-03-29 13:02:00,
2013-03-29 08:07:00,40.1,34.7,30.45,WNW,300,0.0,0.0,81,0.00,CLR,,0.00,WeatherDisplay:10.37,2013-03-29 13:07:00,
2013-03-29 08:13:00,40.3,34.6,30.45,WNW,300,0.0,0.0,80,0.00,CLR,,0.00,WeatherDisplay:10.37,2013-03-29 13:13:00,
2013-03-29 08:18:00,40.6,34.9,30.45,WNW,300,0.0,0.0,80,0.00,CLR,,0.00,WeatherDisplay:10.37,2013-03-29 13:18:00,
2013-03-29 08:23:00,40.9,34.6,30.45,WNW,300,0.0,0.0,78,0.00,CLR,,0.00,WeatherDisplay:10.37,2013-03-29 13:23:00,
2013-03-29 08:28:00,41.2,34.5,30.45,WNW,300,0.0,0.0,77,0.00,CLR,,0.00,WeatherDisplay:10.37,2013-03-29 13:28:00,
2013-03-29 08:33:00,41.5,35.5,30.45,WNW,300,0.0,0.0,79,0.00,CLR,,0.00,WeatherDisplay:10.37,2013-03-29 13:33:00,
2013-03-29 08:38:00,41.8,35.1,30.45,WNW,300,0.0,0.0,77,0.00,CLR,,0.00,WeatherDisplay:10.37,2013-03-29 13:38:00,
2013-03-29 08:43:00,41.9,35.5,30.45,WNW,300,0.0,0.0,78,0.00,CLR,,0.00,WeatherDisplay:10.37,2013-03-29 13:43:00,
2013-03-29 08:48:00,42.2,35.2,30.44,WNW,300,0.0,0.0,76,0.00,CLR,,0.00,WeatherDisplay:10.37,2013-03-29 13:48:00,
2013-03-29 08:53:00,42.3,35.3,30.45,WNW,300,0.0,0.0,76,0.00,CLR,,0.00,WeatherDisplay:10.37,2013-03-29 13:53:00,
2013-03-29 08:58:00,42.5,35.1,30.44,WNW,300,0.0,0.0,75,0.00,CLR,,0.00,WeatherDisplay:10.37,2013-03-29 13:58:00,
2013-03-29 09:03:00,42.6,35.2,30.44,WNW,300,0.0,0.0,75,0.00,CLR,,0.00,WeatherDisplay:10.37,2013-03-29 14:03:00,
2013-03-29 09:08:00,42.8,35.4,30.45,WNW,300,0.0,0.0,75,0.00,CLR,,0.00,WeatherDisplay:10.37,2013-03-29 14:08:00,
2013-03-29 09:13:00,42.9,35.5,30.45,WNW,300,0.0,0.0,75,0.00,CLR,,0.00,WeatherDisplay:10.37,2013-03-29 14:13:00,
2013-03-29 09:18:00,43.1,35.7,30.45,WNW,300,0.0,0.0,75,0.00,CLR,,0.00,WeatherDisplay:10.37,2013-03-29 14:18:00,
2013-03-29 09:23:00,43.1,35.7,30.45,WNW,300,1.0,0.0,75,0.00,CLR,,0.00,WeatherDisplay:10.37,2013-03-29 14:23:00,
2013-03-29 09:28:00,43.2,35.5,30.45,WNW,300,0.0,0.0,74,0.00,CLR,,0.00,WeatherDisplay:10.37,2013-03-29 14:28:00,
2013-03-29 09:33:00,43.5,35.8,30.45,WNW,300,0.0,0.0,74,0.00,CLR,,0.00,WeatherDisplay:10.37,2013-03-29 14:33:00,
2013-03-29 09:38:00,43.6,35.9,30.45,WNW,300,0.0,0.0,74,0.00,CLR,,0.00,WeatherDisplay:10.37,2013-03-29 14:38:00,
2013-03-29 09:43:00,43.9,35.8,30.45,WNW,300,0.0,0.0,73,0.00,CLR,,0.00,WeatherDisplay:10.37,2013-03-29 14:43:00,
2013-03-29 09:48:00,44.1,36.0,30.45,WNW,300,0.0,0.0,73,0.00,CLR,,0.00,WeatherDisplay:10.37,2013-03-29 14:48:00,
2013-03-29 09:53:00,44.3,35.5,30.45,WNW,300,0.0,0.0,71,0.00,CLR,,0.00,WeatherDisplay:10.37,2013-03-29 14:53:00,
2013-03-29 09:58:00,44.5,36.0,30.45,NW,313,0.0,0.0,72,0.00,CLR,,0.00,WeatherDisplay:10.37,2013-03-29 14:58:00,
2013-03-29 10:03:00,44.8,36.3,30.45,SE,137,0.0,0.0,72,0.00,CLR,,0.00,WeatherDisplay:10.37,2013-03-29 15:03:00,
2013-03-29 10:08:00,44.9,35.7,30.46,SE,136,1.1,1.1,70,0.00,CLR,,0.00,WeatherDisplay:10.37,2013-03-29 15:08:00,
2013-03-29 10:13:00,45.1,35.9,30.46,East,81,3.5,3.5,70,0.00,CLR,,0.00,WeatherDisplay:10.37,2013-03-29 15:13:00,
2013-03-29 10:18:00,45.4,36.5,30.46,ENE,71,2.0,2.0,71,0.00,CLR,,0.00,WeatherDisplay:10.37,2013-03-29 15:18:00,
2013-03-29 10:23:00,45.7,36.1,30.46,ENE,71,0.0,0.0,69,0.00,CLR,,0.00,WeatherDisplay:10.37,2013-03-29 15:23:00,
2013-03-29 10:28:00,46.0,35.7,30.46,ENE,71,0.0,0.0,67,0.00,CLR,,0.00,WeatherDisplay:10.37,2013-03-29 15:28:00,
2013-03-29 10:33:00,46.1,35.7,30.46,ENE,71,0.0,0.0,67,0.00,CLR,,0.00,WeatherDisplay:10.37,2013-03-29 15:33:00,
2013-03-29 10:38:00,46.4,35.3,30.46,ENE,71,0.0,0.0,65,0.00,CLR,,0.00,WeatherDisplay:10.37,2013-03-29 15:38:00,
2013-03-29 10:43:00,46.8,35.6,30.46,ENE,71,0.0,0.0,65,0.00,CLR,,0.00,WeatherDisplay:10.37,2013-03-29 15:43:00,
2013-03-29 10:48:00,47.1,35.5,30.46,ENE,71,0.0,0.0,64,0.00,CLR,,0.00,WeatherDisplay:10.37,2013-03-29 15:48:00,
2013-03-29 10:53:00,47.3,35.7,30.46,ENE,71,0.0,0.0,64,0.00,CLR,,0.00,WeatherDisplay:10.37,2013-03-29 15:53:00,
2013-03-29 10:58:00,47.4,35.8,30.46,ENE,71,2.3,2.3,64,0.00,CLR,,0.00,WeatherDisplay:10.37,2013-03-29 15:58:00,
2013-03-29 11:03:00,47.6,35.2,30.45,ENE,71,0.0,0.0,62,0.00,CLR,,0.00,WeatherDisplay:10.37,2013-03-29 16:03:00,
2013-03-29 11:08:00,47.9,35.1,30.45,ENE,71,0.0,0.0,61,0.00,CLR,,0.00,WeatherDisplay:10.37,2013-03-29 16:08:00,
2013-03-29 11:13:00,48.2,35.0,30.45,ENE,71,0.0,0.0,60,0.00,CLR,,0.00,WeatherDisplay:10.37,2013-03-29 16:13:00,
2013-03-29 11:18:00,48.2,34.5,30.45,ENE,71,0.0,0.0,59,0.00,CLR,,0.00,WeatherDisplay:10.37,2013-03-29 16:18:00,
2013-03-29 11:23:00,48.2,34.1,30.45,East,79,0.0,0.0,58,0.00,CLR,,0.00,WeatherDisplay:10.37,2013-03-29 16:23:00,
2013-03-29 11:28:00,48.5,35.2,30.45,East,79,2.3,2.3,60,0.00,CLR,,0.00,WeatherDisplay:10.37,2013-03-29 16:28:00,
2013-03-29 11:33:00,49.1,35.4,30.45,East,79,0.0,0.0,59,0.00,CLR,,0.00,WeatherDisplay:10.37,2013-03-29 16:33:00,
2013-03-29 11:38:00,49.5,35.8,30.45,East,79,0.0,0.0,59,0.00,CLR,,0.00,WeatherDisplay:10.37,2013-03-29 16:38:00,
2013-03-29 11:43:00,50.1,35.0,30.44,ENE,67,0.0,0.0,56,0.00,CLR,,0.00,WeatherDisplay:10.37,2013-03-29 16:43:00,
2013-03-29 11:48:00,50.7,34.2,30.44,ENE,63,3.5,3.5,53,0.00,CLR,,0.00,WeatherDisplay:10.37,2013-03-29 16:48:00,
2013-03-29 11:53:00,50.8,32.3,30.44,ENE,63,3.5,3.5,49,0.00,CLR,,0.00,WeatherDisplay:10.37,2013-03-29 16:53:00,
2013-03-29 11:58:00,50.8,33.8,30.44,ENE,63,2.0,2.0,52,0.00,CLR,,0.00,WeatherDisplay:10.37,2013-03-29 16:58:00,
2013-03-29 12:03:00,50.8,33.3,30.44,NE,45,3.5,3.5,51,0.00,CLR,,0.00,WeatherDisplay:10.37,2013-03-29 17:03:00,
2013-03-29 12:08:00,50.7,32.7,30.43,NNE,22,3.5,3.5,50,0.00,CLR,,0.00,WeatherDisplay:10.37,2013-03-29 17:08:00,
2013-03-29 12:13:00,50.5,33.5,30.43,North,11,1.1,1.1,52,0.00,CLR,,0.00,WeatherDisplay:10.37,2013-03-29 17:13:00,
2013-03-29 12:18:00,50.7,31.2,30.43,ENE,58,3.5,3.5,47,0.00,CLR,,0.00,WeatherDisplay:10.37,2013-03-29 17:18:00,
2013-03-29 12:23:00,50.8,31.3,30.43,NNE,21,4.0,4.0,47,0.00,CLR,,0.00,WeatherDisplay:10.37,2013-03-29 17:23:00,
2013-03-29 12:28:00,51.0,31.5,30.42,ENE,67,3.5,3.5,47,0.00,CLR,,0.00,WeatherDisplay:10.37,2013-03-29 17:28:00,
2013-03-29 12:33:00,51.1,33.6,30.42,ENE,62,3.5,3.5,51,0.00,CLR,,0.00,WeatherDisplay:10.37,2013-03-29 17:33:00,
2013-03-29 12:38:00,51.6,31.5,30.42,NE,55,2.3,2.3,46,0.00,CLR,,0.00,WeatherDisplay:10.37,2013-03-29 17:38:00,
2013-03-29 12:44:00,52.0,31.8,30.41,NE,44,4.6,0.0,46,0.00,CLR,,0.00,WeatherDisplay:10.37,2013-03-29 17:44:00,
2013-03-29 12:49:00,52.5,32.8,30.41,ENE,60,3.5,3.5,47,0.00,CLR,,0.00,WeatherDisplay:10.37,2013-03-29 17:49:00,
2013-03-29 12:54:00,52.9,31.0,30.41,ENE,71,3.5,3.5,43,0.00,CLR,,0.00,WeatherDisplay:10.37,2013-03-29 17:54:00,
2013-03-29 12:59:00,53.3,30.2,30.41,ENE,61,3.5,3.5,41,0.00,CLR,,0.00,WeatherDisplay:10.37,2013-03-29 17:59:00,
2013-03-29 13:04:00,53.8,32.4,30.40,NNE,24,4.6,4.6,44,0.00,CLR,,0.00,WeatherDisplay:10.37,2013-03-29 18:04:00,
2013-03-29 13:09:00,54.4,30.6,30.40,NNE,12,3.5,3.5,40,0.00,CLR,,0.00,WeatherDisplay:10.37,2013-03-29 18:09:00,
2013-03-29 13:14:00,54.7,34.8,30.39,NNE,29,6.9,6.9,47,0.00,CLR,,0.00,WeatherDisplay:10.37,2013-03-29 18:14:00,
2013-03-29 13:19:00,55.9,30.0,30.39,NE,55,6.9,6.9,37,0.00,CLR,,0.00,WeatherDisplay:10.37,2013-03-29 18:19:00,
2013-03-29 13:24:00,57.0,33.5,30.38,NNE,23,3.5,3.5,41,0.00,CLR,,0.00,WeatherDisplay:10.37,2013-03-29 18:24:00,
2013-03-29 13:29:00,57.3,33.2,30.38,North,11,5.8,5.8,40,0.00,CLR,,0.00,WeatherDisplay:10.37,2013-03-29 18:29:00,
2013-03-29 13:34:00,58.1,33.2,30.38,North,355,5.0,5.0,39,0.00,CLR,,0.00,WeatherDisplay:10.37,2013-03-29 18:34:00,
2013-03-29 13:39:00,58.6,33.0,30.37,ENE,57,4.0,4.0,38,0.00,CLR,,0.00,WeatherDisplay:10.37,2013-03-29 18:39:00,
2013-03-29 13:44:00,58.3,33.4,30.36,North,5,1.1,1.1,39,0.00,CLR,,0.00,WeatherDisplay:10.37,2013-03-29 18:44:00,
2013-03-29 13:49:00,58.3,32.8,30.36,NNE,32,3.5,3.5,38,0.00,CLR,,0.00,WeatherDisplay:10.37,2013-03-29 18:49:00,
2013-03-29 13:54:00,57.8,33.6,30.36,NE,41,2.0,2.0,40,0.00,CLR,,0.00,WeatherDisplay:10.37,2013-03-29 18:54:00,
2013-03-29 13:59:00,57.5,32.7,30.36,NNE,16,3.5,3.5,39,0.00,CLR,,0.00,WeatherDisplay:10.37,2013-03-29 18:59:00,
2013-03-29 14:04:00,57.2,32.4,30.36,NNE,25,4.0,4.0,39,0.00,CLR,,0.00,WeatherDisplay:10.37,2013-03-29 19:04:00,
2013-03-29 14:09:00,56.7,32.6,30.36,NNE,15,3.5,3.5,40,0.00,CLR,,0.00,WeatherDisplay:10.37,2013-03-29 19:09:00,
2013-03-29 14:14:00,56.3,31.6,30.36,NNE,22,3.5,0.0,39,0.00,CLR,,0.00,WeatherDisplay:10.37,2013-03-29 19:14:00,
2013-03-29 14:19:00,56.2,32.2,30.36,NNE,13,3.5,3.5,40,0.00,CLR,,0.00,WeatherDisplay:10.37,2013-03-29 19:19:00,
2013-03-29 14:24:00,56.0,31.4,30.36,East,80,3.5,3.5,39,0.00,CLR,,0.00,WeatherDisplay:10.37,2013-03-29 19:24:00,
2013-03-29 14:29:00,56.0,31.4,30.35,ENE,72,3.0,3.0,39,0.00,CLR,,0.00,WeatherDisplay:10.37,2013-03-29 19:29:00,
2013-03-29 14:34:00,55.9,32.5,30.35,NNE,19,3.5,3.5,41,0.00,CLR,,0.00,WeatherDisplay:10.37,2013-03-29 19:34:00,
2013-03-29 14:39:00,55.7,32.9,30.35,NNE,30,0.0,0.0,42,0.00,CLR,,0.00,WeatherDisplay:10.37,2013-03-29 19:39:00,
2013-03-29 14:44:00,55.6,32.8,30.34,NE,42,1.1,0.0,42,0.00,CLR,,0.00,WeatherDisplay:10.37,2013-03-29 19:44:00,
2013-03-29 14:49:00,55.6,32.2,30.34,NNE,19,3.5,3.5,41,0.00,CLR,,0.00,WeatherDisplay:10.37,2013-03-29 19:49:00,
2013-03-29 14:54:00,55.4,32.7,30.34,NNE,22,4.6,4.6,42,0.00,CLR,,0.00,WeatherDisplay:10.37,2013-03-29 19:54:00,
2013-03-29 14:59:00,55.3,33.7,30.34,East,93,3.0,3.0,44,0.00,CLR,,0.00,WeatherDisplay:10.37,2013-03-29 19:59:00,
2013-03-29 15:04:00,55.3,33.2,30.33,ESE,105,3.5,3.5,43,0.00,CLR,,0.00,WeatherDisplay:10.37,2013-03-29 20:04:00,
2013-03-29 15:09:00,55.3,33.2,30.33,North,5,3.0,3.0,43,0.00,CLR,,0.00,WeatherDisplay:10.37,2013-03-29 20:09:00,
2013-03-29 15:15:00,55.4,33.8,30.33,NNE,22,3.5,3.5,44,0.00,CLR,,0.00,WeatherDisplay:10.37,2013-03-29 20:15:00,
2013-03-29 15:20:00,55.6,33.4,30.33,NNE,22,2.3,0.0,43,0.00,CLR,,0.00,WeatherDisplay:10.37,2013-03-29 20:20:00,
2013-03-29 15:25:00,55.7,33.6,30.33,NNE,31,1.0,4.0,43,0.00,CLR,,0.00,WeatherDisplay:10.37,2013-03-29 20:25:00,
2013-03-29 15:30:00,55.9,33.1,30.33,NE,52,4.6,4.6,42,0.00,CLR,,0.00,WeatherDisplay:10.37,2013-03-29 20:30:00,
2013-03-29 15:35:00,56.0,34.4,30.33,NE,34,3.5,3.5,44,0.00,CLR,,0.00,WeatherDisplay:10.37,2013-03-29 20:35:00,
2013-03-29 15:40:00,56.0,33.8,30.33,NE,48,3.0,9.0,43,0.00,CLR,,0.00,WeatherDisplay:10.37,2013-03-29 20:40:00,
2013-03-29 15:45:00,55.9,34.8,30.33,NNE,32,1.0,6.0,45,0.00,CLR,,0.00,WeatherDisplay:10.37,2013-03-29 20:45:00,
2013-03-29 15:50:00,55.9,34.8,30.33,NE,36,2.0,7.0,45,0.00,CLR,,0.00,WeatherDisplay:10.37,2013-03-29 20:50:00,
2013-03-29 15:55:00,55.9,35.4,30.32,NE,35,1.0,5.0,46,0.00,CLR,,0.00,WeatherDisplay:10.37,2013-03-29 20:55:00,
2013-03-29 16:00:00,56.0,36.0,30.32,NNE,27,1.0,6.0,47,0.00,CLR,,0.00,WeatherDisplay:10.37,2013-03-29 21:00:00,
2013-03-29 16:05:00,56.0,35.5,30.32,NE,44,2.0,7.0,46,0.00,CLR,,0.00,WeatherDisplay:10.37,2013-03-29 21:05:00,
2013-03-29 16:10:00,56.2,36.2,30.32,NE,46,1.0,5.0,47,0.00,CLR,,0.00,WeatherDisplay:10.37,2013-03-29 21:10:00,
2013-03-29 16:15:00,56.3,36.3,30.32,NNE,32,2.0,5.0,47,0.00,CLR,,0.00,WeatherDisplay:10.37,2013-03-29 21:15:00,
2013-03-29 16:20:00,56.5,36.0,30.32,NE,39,1.0,5.0,46,0.00,CLR,,0.00,WeatherDisplay:10.37,2013-03-29 21:20:00,
2013-03-29 16:25:00,56.5,36.0,30.32,NE,54,0.0,6.0,46,0.00,CLR,,0.00,WeatherDisplay:10.37,2013-03-29 21:25:00,
2013-03-29 16:30:00,56.6,36.6,30.32,NE,54,0.0,4.0,47,0.00,CLR,,0.00,WeatherDisplay:10.37,2013-03-29 21:30:00,
2013-03-29 16:35:00,56.7,35.0,30.32,NNE,27,2.0,5.0,44,0.00,CLR,,0.00,WeatherDisplay:10.37,2013-03-29 21:35:00,
2013-03-29 16:40:00,56.9,35.2,30.32,NNE,27,3.0,5.0,44,0.00,CLR,,0.00,WeatherDisplay:10.37,2013-03-29 21:40:00,
2013-03-29 16:45:00,56.9,35.2,30.32,NNE,32,0.0,5.0,44,0.00,CLR,,0.00,WeatherDisplay:10.37,2013-03-29 21:45:00,
2013-03-29 16:50:00,57.0,35.9,30.32,NE,44,0.0,3.0,45,0.00,CLR,,0.00,WeatherDisplay:10.37,2013-03-29 21:50:00,
2013-03-29 16:55:00,57.2,34.9,30.31,NE,36,1.0,3.0,43,0.00,CLR,,0.00,WeatherDisplay:10.37,2013-03-29 21:55:00,
2013-03-29 17:00:00,57.2,36.0,30.31,NNE,28,0.0,4.0,45,0.00,CLR,,0.00,WeatherDisplay:10.37,2013-03-29 22:00:00,
2013-03-29 17:05:00,57.2,35.5,30.31,NNE,19,0.0,4.0,44,0.00,CLR,,0.00,WeatherDisplay:10.37,2013-03-29 22:05:00,
2013-03-29 17:10:00,57.2,36.0,30.31,NNE,18,0.0,1.0,45,0.00,CLR,,0.00,WeatherDisplay:10.37,2013-03-29 22:10:00,
2013-03-29 17:15:00,57.0,36.4,30.31,NNE,21,0.0,1.0,46,0.00,CLR,,0.00,WeatherDisplay:10.37,2013-03-29 22:15:00,
2013-03-29 17:20:00,56.9,35.2,30.30,NNE,25,1.0,3.0,44,0.00,CLR,,0.00,WeatherDisplay:10.37,2013-03-29 22:20:00,
2013-03-29 17:25:00,56.6,33.8,30.30,ESE,104,3.5,3.5,42,0.00,CLR,,0.00,WeatherDisplay:10.37,2013-03-29 22:25:00,
2013-03-29 17:30:00,56.5,34.3,30.30,ESE,104,0.0,0.0,43,0.00,CLR,,0.00,WeatherDisplay:10.37,2013-03-29 22:30:00,
2013-03-29 17:35:00,56.3,32.9,30.30,West,275,0.0,0.7,41,0.00,CLR,,0.00,WeatherDisplay:10.37,2013-03-29 22:35:00,
2013-03-29 17:40:00,56.2,34.0,30.31,NW,317,0.0,0.0,43,0.00,CLR,,0.00,WeatherDisplay:10.37,2013-03-29 22:40:00,
2013-03-29 17:45:00,56.0,32.6,30.31,North,9,0.0,0.0,41,0.00,CLR,,0.00,WeatherDisplay:10.37,2013-03-29 22:45:00,
2013-03-29 17:50:00,56.0,33.8,30.31,North,9,0.0,0.0,43,0.00,CLR,,0.00,WeatherDisplay:10.37,2013-03-29 22:50:00,
2013-03-29 17:55:00,55.9,34.3,30.31,NNE,13,0.0,0.0,44,0.00,CLR,,0.00,WeatherDisplay:10.37,2013-03-29 22:55:00,
2013-03-29 18:00:00,55.7,32.3,30.31,NNE,20,3.0,3.0,41,0.00,CLR,,0.00,WeatherDisplay:10.37,2013-03-29 23:00:00,
2013-03-29 18:05:00,55.6,34.0,30.31,ENE,65,0.0,0.1,44,0.00,CLR,,0.00,WeatherDisplay:10.37,2013-03-29 23:05:00,
2013-03-29 18:10:00,55.6,33.4,30.31,ENE,59,2.3,2.3,43,0.00,CLR,,0.00,WeatherDisplay:10.37,2013-03-29 23:10:00,
2013-03-29 18:15:00,55.4,33.8,30.31,ENE,59,0.0,0.0,44,0.00,CLR,,0.00,WeatherDisplay:10.37,2013-03-29 23:15:00,
2013-03-29 18:20:00,55.1,33.6,30.31,NNW,329,0.0,0.0,44,0.00,CLR,,0.00,WeatherDisplay:10.37,2013-03-29 23:20:00,
2013-03-29 18:25:00,55.0,32.9,30.30,SSE,158,3.5,3.5,43,0.00,CLR,,0.00,WeatherDisplay:10.37,2013-03-29 23:25:00,
2013-03-29 18:30:00,54.8,33.3,30.30,SSE,158,0.0,0.0,44,0.00,CLR,,0.00,WeatherDisplay:10.37,2013-03-29 23:30:00,
2013-03-29 18:35:00,54.7,34.3,30.30,SSE,158,0.0,0.0,46,0.00,CLR,,0.00,WeatherDisplay:10.37,2013-03-29 23:35:00,
2013-03-29 18:40:00,54.5,33.6,30.30,SSE,158,0.0,0.0,45,0.00,CLR,,0.00,WeatherDisplay:10.37,2013-03-29 23:40:00,
2013-03-29 18:45:00,54.4,33.5,30.31,SSE,158,0.0,0.0,45,0.00,CLR,,0.00,WeatherDisplay:10.37,2013-03-29 23:45:00,
2013-03-29 18:50:00,54.2,33.9,30.31,SSE,158,0.0,0.0,46,0.00,CLR,,0.00,WeatherDisplay:10.37,2013-03-29 23:50:00,
2013-03-29 18:55:00,53.9,34.1,30.31,SSE,158,0.0,0.0,47,0.00,CLR,,0.00,WeatherDisplay:10.37,2013-03-29 23:55:00,
2013-03-29 19:00:00,53.8,34.6,30.30,SSE,158,0.0,0.0,48,0.00,CLR,,0.00,WeatherDisplay:10.37,2013-03-30 00:00:00,
2013-03-29 19:05:00,53.5,34.3,30.30,SSE,158,0.0,0.0,48,0.00,CLR,,0.00,WeatherDisplay:10.37,2013-03-30 00:05:00,
2013-03-29 19:10:00,53.2,34.5,30.30,SSE,158,0.0,0.0,49,0.00,CLR,,0.00,WeatherDisplay:10.37,2013-03-30 00:10:00,
2013-03-29 19:15:00,52.9,35.2,30.30,SSE,158,0.0,0.0,51,0.00,CLR,,0.00,WeatherDisplay:10.37,2013-03-30 00:15:00,
2013-03-29 19:20:00,52.6,35.0,30.30,SSE,158,0.0,0.0,51,0.00,CLR,,0.00,WeatherDisplay:10.37,2013-03-30 00:20:00,
2013-03-29 19:25:00,52.3,35.2,30.30,SSE,158,0.0,0.0,52,0.00,CLR,,0.00,WeatherDisplay:10.37,2013-03-30 00:25:00,
2013-03-29 19:30:00,52.2,35.6,30.31,SSE,158,0.0,0.0,53,0.00,CLR,,0.00,WeatherDisplay:10.37,2013-03-30 00:30:00,
2013-03-29 19:35:00,52.0,35.9,30.30,SSE,149,1.1,1.1,54,0.00,CLR,,0.00,WeatherDisplay:10.37,2013-03-30 00:35:00,
2013-03-29 19:40:00,52.0,36.3,30.31,SSE,149,2.3,2.3,55,0.00,CLR,,0.00,WeatherDisplay:10.37,2013-03-30 00:40:00,
2013-03-29 19:45:00,52.0,37.2,30.31,NE,46,3.5,3.5,57,0.00,CLR,,0.00,WeatherDisplay:10.37,2013-03-30 00:45:00,
2013-03-29 19:50:00,51.9,37.1,30.30,NE,36,3.5,3.5,57,0.00,CLR,,0.00,WeatherDisplay:10.37,2013-03-30 00:50:00,
2013-03-29 19:55:00,51.9,37.6,30.30,NE,44,3.5,3.5,58,0.00,CLR,,0.00,WeatherDisplay:10.37,2013-03-30 00:55:00,
2013-03-29 20:00:00,51.7,37.8,30.30,NE,37,3.5,3.5,59,0.00,CLR,,0.00,WeatherDisplay:10.37,2013-03-30 01:00:00,
2013-03-29 20:05:00,51.6,37.7,30.31,NE,37,2.3,2.3,59,0.00,CLR,,0.00,WeatherDisplay:10.37,2013-03-30 01:05:00,
2013-03-29 20:10:00,51.4,38.0,30.31,NE,37,0.0,0.0,60,0.00,CLR,,0.00,WeatherDisplay:10.37,2013-03-30 01:10:00,
2013-03-29 20:15:00,51.3,37.9,30.31,NNE,32,2.3,2.3,60,0.00,CLR,,0.00,WeatherDisplay:10.37,2013-03-30 01:15:00,
2013-03-29 20:20:00,51.1,37.7,30.31,NNE,22,2.3,2.3,60,0.00,CLR,,0.00,WeatherDisplay:10.37,2013-03-30 01:20:00,
2013-03-29 20:25:00,51.0,38.0,30.31,NNE,22,0.0,0.1,61,0.00,CLR,,0.00,WeatherDisplay:10.37,2013-03-30 01:25:00,
2013-03-29 20:30:00,50.8,37.4,30.32,NE,42,3.5,3.5,60,0.00,CLR,,0.00,WeatherDisplay:10.37,2013-03-30 01:30:00,
2013-03-29 20:35:00,50.7,37.3,30.32,NE,42,2.3,2.3,60,0.00,CLR,,0.00,WeatherDisplay:10.37,2013-03-30 01:35:00,
2013-03-29 20:40:00,50.5,37.5,30.32,NE,39,2.0,2.0,61,0.00,CLR,,0.00,WeatherDisplay:10.37,2013-03-30 01:40:00,
2013-03-29 20:45:00,50.4,37.4,30.32,NE,40,2.3,2.3,61,0.00,CLR,,0.00,WeatherDisplay:10.37,2013-03-30 01:45:00,
2013-03-29 20:50:00,50.4,37.4,30.32,NE,40,1.0,0.0,61,0.00,CLR,,0.00,WeatherDisplay:10.37,2013-03-30 01:50:00,
2013-03-29 20:55:00,50.2,37.3,30.32,NE,40,1.1,1.1,61,0.00,CLR,,0.00,WeatherDisplay:10.37,2013-03-30 01:55:00,
2013-03-29 21:00:00,50.1,37.6,30.33,NE,39,1.1,0.0,62,0.00,CLR,,0.00,WeatherDisplay:10.37,2013-03-30 02:00:00,
2013-03-29 21:05:00,49.9,37.4,30.33,NE,39,0.0,0.0,62,0.00,CLR,,0.00,WeatherDisplay:10.37,2013-03-30 02:05:00,
2013-03-29 21:10:00,49.8,37.7,30.33,NNE,30,3.5,3.5,63,0.00,CLR,,0.00,WeatherDisplay:10.37,2013-03-30 02:10:00,
2013-03-29 21:15:00,49.6,37.5,30.33,NNE,27,3.5,3.5,63,0.00,CLR,,0.00,WeatherDisplay:10.37,2013-03-30 02:15:00,
2013-03-29 21:20:00,49.6,37.9,30.33,NNE,27,2.0,2.0,64,0.00,CLR,,0.00,WeatherDisplay:10.37,2013-03-30 02:20:00,
2013-03-29 21:25:00,49.5,37.8,30.33,NNE,32,1.1,1.1,64,0.00,CLR,,0.00,WeatherDisplay:10.37,2013-03-30 02:25:00,
2013-03-29 21:30:00,49.5,37.4,30.33,NNE,30,2.3,2.3,63,0.00,CLR,,0.00,WeatherDisplay:10.37,2013-03-30 02:30:00,
2013-03-29 21:35:00,49.4,37.7,30.33,NNE,30,1.1,0.0,64,0.00,CLR,,0.00,WeatherDisplay:10.37,2013-03-30 02:35:00,
2013-03-29 21:40:00,49.4,37.7,30.33,NNE,30,3.5,3.5,64,0.00,CLR,,0.00,WeatherDisplay:10.37,2013-03-30 02:40:00,
2013-03-29 21:45:00,49.2,37.5,30.34,NNE,30,1.1,1.1,64,0.00,CLR,,0.00,WeatherDisplay:10.37,2013-03-30 02:45:00,
2013-03-29 21:50:00,49.2,37.5,30.33,NNE,30,1.1,1.1,64,0.00,CLR,,0.00,WeatherDisplay:10.37,2013-03-30 02:50:00,
2013-03-29 21:55:00,49.2,37.5,30.33,NE,42,2.0,2.0,64,0.00,CLR,,0.00,WeatherDisplay:10.37,2013-03-30 02:55:00,
2013-03-29 22:00:00,49.2,37.9,30.33,NE,49,2.3,2.3,65,0.00,CLR,,0.00,WeatherDisplay:10.37,2013-03-30 03:00:00,
2013-03-29 22:05:00,49.1,37.8,30.33,NE,49,0.0,0.0,65,0.00,CLR,,0.00,WeatherDisplay:10.37,2013-03-30 03:05:00,
2013-03-29 22:10:00,49.1,37.8,30.33,NE,49,0.0,0.0,65,0.00,CLR,,0.00,WeatherDisplay:10.37,2013-03-30 03:10:00,
2013-03-29 22:15:00,49.1,38.2,30.33,NE,49,0.0,0.0,66,0.00,CLR,,0.00,WeatherDisplay:10.37,2013-03-30 03:15:00,
2013-03-29 22:20:00,48.9,38.0,30.33,NE,49,0.0,0.0,66,0.00,CLR,,0.00,WeatherDisplay:10.37,2013-03-30 03:20:00,
2013-03-29 22:25:00,48.9,38.0,30.33,NE,49,2.0,2.0,66,0.00,CLR,,0.00,WeatherDisplay:10.37,2013-03-30 03:25:00,
2013-03-29 22:30:00,48.8,37.9,30.33,NE,49,0.0,0.0,66,0.00,CLR,,0.00,WeatherDisplay:10.37,2013-03-30 03:30:00,
2013-03-29 22:35:00,48.8,38.3,30.33,NE,49,0.0,0.0,67,0.00,CLR,,0.00,WeatherDisplay:10.37,2013-03-30 03:35:00,
2013-03-29 22:40:00,48.8,38.3,30.33,NE,49,2.0,2.0,67,0.00,CLR,,0.00,WeatherDisplay:10.37,2013-03-30 03:40:00,
2013-03-29 22:45:00,48.6,38.5,30.33,NE,49,3.5,0.0,68,0.00,CLR,,0.00,WeatherDisplay:10.37,2013-03-30 03:45:00,
2013-03-29 22:50:00,48.6,38.5,30.33,NE,49,3.5,3.5,68,0.00,CLR,,0.00,WeatherDisplay:10.37,2013-03-30 03:50:00,
2013-03-29 22:55:00,48.6,38.9,30.33,NE,49,2.0,2.0,69,0.00,CLR,,0.00,WeatherDisplay:10.37,2013-03-30 03:55:00,
2013-03-29 23:00:00,48.5,39.2,30.33,NE,48,2.3,2.3,70,0.00,CLR,,0.00,WeatherDisplay:10.37,2013-03-30 04:00:00,
2013-03-29 23:02:00,48.5,39.2,30.33,NE,48,1.1,1.1,70,0.00,CLR,,0.00,WeatherDisplay:10.37,2013-03-30 04:02:00,
2013-03-29 23:07:00,48.3,39.0,30.33,NE,48,1.1,1.1,70,0.00,CLR,,0.00,WeatherDisplay:10.37,2013-03-30 04:07:00,
2013-03-29 23:12:00,48.2,39.2,30.33,NE,48,1.1,1.1,71,0.00,CLR,,0.00,WeatherDisplay:10.37,2013-03-30 04:12:00,
2013-03-29 23:17:00,48.2,39.2,30.32,NE,48,0.0,0.0,71,0.00,CLR,,0.00,WeatherDisplay:10.37,2013-03-30 04:17:00,
2013-03-29 23:22:00,48.0,39.0,30.32,NE,48,1.1,0.0,71,0.00,CLR,,0.00,WeatherDisplay:10.37,2013-03-30 04:22:00,
2013-03-29 23:27:00,48.0,39.4,30.32,NE,48,1.0,1.0,72,0.00,CLR,,0.00,WeatherDisplay:10.37,2013-03-30 04:27:00,
2013-03-29 23:32:00,47.9,39.3,30.32,NE,48,1.1,0.0,72,0.00,CLR,,0.00,WeatherDisplay:10.37,2013-03-30 04:32:00,
2013-03-29 23:37:00,47.9,39.3,30.31,NE,48,0.0,0.0,72,0.00,CLR,,0.00,WeatherDisplay:10.37,2013-03-30 04:37:00,
2013-03-29 23:42:00,47.7,39.5,30.32,East,86,3.0,3.0,73,0.00,CLR,,0.00,WeatherDisplay:10.37,2013-03-30 04:42:00,
2013-03-29 23:47:00,47.7,39.5,30.31,ESE,104,0.0,0.0,73,0.00,CLR,,0.00,WeatherDisplay:10.37,2013-03-30 04:47:00,
2013-03-29 23:52:00,47.6,39.7,30.31,ESE,104,1.1,0.0,74,0.00,CLR,,0.00,WeatherDisplay:10.37,2013-03-30 04:52:00,
2013-03-29 23:57:00,47.6,39.7,30.31,NE,55,2.0,2.0,74,0.00,CLR,,0.00,WeatherDisplay:10.37,2013-03-30 04:57:00,